Regional Weather Roundup
Issued by NWS Jackson, KY

Home | Current Version | Previous Version | Graphics & Text | Print | Product List | Glossary On
Versions: 1 2 3 4 5 6 7 8 9 10 11 12 13 14 15 16 17 18 19 20 21 22 23 24 25 26 27 28 29 30 31 32 33 34 35 36 37 38 39 40 41 42 43 44 45 46 47 48 49 50
000
ASUS43 KJKL 270010
RWRJKL

EAST KENTUCKY HOURLY WEATHER ROUNDUP
NATIONAL WEATHER SERVICE JACKSON KY
800 PM EDT FRI MAY 26 2017

NOTE: "FAIR" INDICATES FEW OR NO CLOUDS BELOW 12,000 FEET WITH
NO SIGNIFICANT WEATHER AND/OR OBSTRUCTIONS TO VISIBILITY.

* THESE REPORTS ARE NOT UNDER NWS QUALITY CONTROL AND MAY NOT
  REPORT WEATHER SUCH AS PRECIPITATION AND FOG.

KYZ079-080-083-085-087-088-110-112-115-119-120-270100
...EASTERN KENTUCKY...

CITY           SKY/WX    TMP DP  RH WIND       PRES   REMARKS
JACKSON        CLEAR     73  59  61 CALM      29.94S
6HR MIN TEMP:  71; 6HR MAX TEMP:  77;

LONDON         CLEAR     76  58  53 S6        29.93S
6HR MIN TEMP:  74; 6HR MAX TEMP:  79;

SOMERSET*      CLEAR     77  57  50 SW3       29.91F
MONTICELLO*    CLEAR     77  63  61 NE5       29.91F
6HR MIN TEMP:  76; 6HR MAX TEMP:  80;

WILLIAMSBURG*  CLEAR     75  63  64 S6        29.93S
MIDDLESBORO*   CLEAR     74  60  60 CALM      29.95S
6HR MIN TEMP:  74; 6HR MAX TEMP:  79;

HARLAN APT*    CLEAR     73  55  53 CALM      29.96S
PIKE CO APT*     N/A     73  54  52 CALM      29.96S
BIG SANDY APT* CLEAR     74  57  54 CALM      29.94F
6HR MIN TEMP:  73; 6HR MAX TEMP:  77;

MOREHEAD APT*  CLEAR     73  57  56 S3        29.93S
$$

KYZ035-036-041-042-044-050-067-078-099-270100
...CENTRAL KENTUCKY...

CITY           SKY/WX    TMP DP  RH WIND       PRES   REMARKS
MT STERLING*   CLEAR     75  61  60 S6        29.91F
FLEMING/MASON* CLEAR     74  60  60 S5        29.90F
DANVILLE*      CLEAR     75  61  60 S6        29.90F
LEXINGTON      CLEAR     76  61  59 S9        29.89S
6HR MIN TEMP:  75; 6HR MAX TEMP:  79;

FRANKFORT      CLEAR     77  61  57 S8        29.86S
6HR MIN TEMP:  76; 6HR MAX TEMP:  80;

LOUISVILLE     MOCLDY    80  61  52 S12       29.83S
6HR MIN TEMP:  78; 6HR MAX TEMP:  83;

LEBANON*         N/A     75  64  69 SE7       29.88S
GLASGOW*       PTCLDY    79  61  53 SW3       29.86R
BOWLING GREEN  PTCLDY    82  58  43 SW12      29.85R
6HR MIN TEMP:  77; 6HR MAX TEMP:  85;

$$

KYZ091>093-OHZ055-061-077-WVZ005-015-034-035-042-270100
...SOUTHERN OHIO/WEST VIRGINIA...

CITY           SKY/WX    TMP DP  RH WIND       PRES   REMARKS
COVINGTON      MOCLDY    74  62  66 S7        29.87R
COLUMBUS       PTCLDY    73  55  53 W8        29.88R
DAYTON         MOCLDY    73  55  53 S6        29.87S
WILMINGTON     CLEAR     73  59  61 S7        29.87F
HUNTINGTON     CLEAR     75  54  47 SW5       29.91S
CHARLESTON     PTCLDY    74  54  49 SW6       29.92R
PINEVILLE*     CLEAR     64  59  85 MISG      30.02R
BECKLEY        CLEAR     67  51  56 W7        29.99R
BLUEFIELD      CLEAR     66  48  52 W7        30.01R
LOGAN CO APT*    N/A     72  54  53 CALM      29.96S
$$

VAZ002-007-008-TNZ017-027-036-066-071-270100
...SOUTHWEST VIRGINIA/EAST TENNESSEE...

CITY           SKY/WX    TMP DP  RH WIND       PRES   REMARKS
WISE*          CLEAR     68  54  60 CALM      30.02S
JONESVILLE*      N/A     75  57  53 SW5       29.98F
ABINGDON*      CLEAR     71  55  56 W5        30.01R
BRISTOL        PTCLDY    72  56  57 SW7       29.98R
MORRISTOWN*    CLEAR     73  59  60 SW7       29.96S
SEVIERVILLE*   CLEAR     75  57  53 CALM      29.95S
KNOXVILLE      MOCLDY    76  60  57 SW7       29.93F
LAFOLLETTE*    CLEAR     75  61  60 S6        29.97S
OAK RIDGE      CLEAR     78  60  53 CALM      29.95S
CROSSVILLE     CLEAR     74  59  59 S7        29.97R
NASHVILLE      CLOUDY    84  58  40 S6        29.87R
$$

...KEY TO REMARKS...
VSB - VISIBILITY IN MILES
WCI - WIND CHILL INDEX
HX  - HEAT INDEX

$$



USA.gov is the U.S. government's official web portal to all federal, state and local government web resources and services.